Regional Weather Roundup
Issued by NWS

Home | Current Version | Previous Version | Graphics & Text | Print | Product List | Glossary On
Versions: 1 2 3 4 5 6 7 8 9 10 11 12 13 14 15 16 17 18 19 20 21 22 23 24 25 26 27 28 29 30 31 32 33 34 35 36 37 38 39 40 41 42 43 44 45 46 47 48 49 50
000
ASUS43 KDMX 262004
RWRIA

WEATHER ROUNDUP FOR IOWA
NATIONAL WEATHER SERVICE DES MOINES IA
  ISSUED BY NWS QUAD CITIES IA IL
200 PM CST THU FEB 26 2015

NOTE: "FAIR" INDICATES FEW OR NO CLOUDS BELOW 12,000 FEET WITH NO
SIGNIFICANT WEATHER AND/OR OBSTRUCTIONS TO VISIBILITY.

* - THESE STATIONS ARE NOT NWS STATIONS...THUS NOT UNDER NWS
QUALITY CONTROL.  THEY ALSO DO NOT REPORT WEATHER SUCH
AS PRECIPITATION OR FOG.

IAZ001>003-012>014-020>022-031>034-043>046-262100-
   NORTHWEST IOWA

CITY           SKY/WX    TMP DP  RH WIND       PRES   REMARKS
CARROLL *      PTSUNNY    5  -4  66 NW14G20   30.47S WCI -12
CHEROKEE *     PTCLDY     4  -6  63 NW20      30.48F WCI -16
DENNISON *     MOSUNNY    5  -6  61 N17       30.46F WCI -14
LE MARS *      PTSUNNY    7   0  72 N13G21    30.51F WCI  -9
ORANGE CITY *  MOSUNNY    5  -4  66 NW13G22   30.47F WCI -12
SHELDON *      PTSUNNY    3  -4  72 NW14      30.46F HAZE    WCI -15
SIOUX CITY     CLOUDY    10  -1  61 NW21      30.52F WCI  -9
SPENCER        CLOUDY     5  -6  60 NW16      30.46S WCI -14
STORM LAKE *   LGT SNOW   3  -4  72 N17       30.45F WCI -17
$$

IAZ055>058-069>071-079>083-090>094-262100-
   SOUTHWEST IOWA

CITY           SKY/WX    TMP DP  RH WIND       PRES   REMARKS
ATLANTIC *     MOSUNNY    7  -4  61 N16       30.48R WCI -11
AUDUBON *      SUNNY      7  -4  61 NW12      30.45F WCI  -9
CLARINDA *     MOSUNNY   12   0  57 N17G26    30.50S WCI  -5
COUNCIL BLFS * PTSUNNY    9   0  66 N20       30.47S WCI -11
CRESTON *      MOSUNNY    9  -2  61 NW15G23   30.43S WCI  -8
HARLAN *       MOSUNNY    5  -4  66 N17G24    30.52R WCI -14
LAMONI         SUNNY     10  -3  55 N16G24    30.42R WCI  -7
RED OAK *      MOSUNNY   10   0  61 N15G25    30.50R WCI  -6
SHENANDOAH *   PTSUNNY   10   0  61 N14G22    30.51S WCI  -5
$$

IAZ047>049-059>061-072>074-084-262100-
   CENTRAL IOWA

CITY           SKY/WX    TMP DP  RH WIND       PRES   REMARKS
AMES           SUNNY      7  -4  60 N20       30.45F WCI -13
ANKENY *       SUNNY      9  -4  56 NW16G23   30.46S WCI  -9
BOONE *        SUNNY      7  -6  56 N18       30.42F WCI -12
CHARITON *     MOSUNNY   10  -4  52 NW18      30.41S WCI  -8
DES MOINES     MOSUNNY   10  -2  58 NW17G24   30.45S WCI  -8
GRINNELL *     CLEAR      7  -2  66 NW16      30.41S WCI -11
KNOXVILLE *    SUNNY      9  -6  52 NW20G26   30.41F WCI -11
MARSHALLTOWN   SUNNY      6  -4  63 NW16      30.42S WCI -12
NEWTON *       MOSUNNY    7  -4  61 NW17      30.43S WCI -12
PELLA *        SUNNY     10   1  66 NW15G21   30.44F WCI  -6
PERRY *          N/A      8   0  70 NW16      30.47S WCI -10
$$

IAZ004>006-015-016-023>025-035-036-262100-
   NORTH CENTRAL IOWA

CITY           SKY/WX    TMP DP  RH WIND       PRES   REMARKS
ALGONA *       CLOUDY     3  -4  72 NW17      30.45F WCI -17
CLARION *      PTSUNNY    3  -6  66 NW17      30.44S WCI -17
ESTHERVILLE    PTSUNNY    3  -6  66 N17       30.45S WCI -17
FORT DODGE *   MOSUNNY    5  -6  61 NW9       30.46F WCI  -9
MASON CITY     SUNNY      3  -5  69 NW16      30.42F WCI -16
FOREST CITY *    N/A      5  -6  61 NW13      30.42S HAZE    WCI -12
WEBSTER CITY * CLOUDY     5  -4  66 NW17      30.43S WCI -14
IOWA FALLS *   FAIR       6  -4  64 NW17      30.43S WCI -13
$$

IAZ007>011-017>019-026>030-037>042-050>054-066-262100-
   NORTHEAST IOWA

CITY           SKY/WX    TMP DP  RH WIND       PRES   REMARKS
CEDAR RAPIDS   SUNNY      9   0  67 NW18      30.37R WCI -10
CHARLES CITY * CLOUDY     5  -6  61 NW16      30.40S WCI -14
CLINTON *      CLOUDY    12   1  62 N12       30.36R WCI  -2
DECORAH *      SUNNY      7  -8  51 N15G21    30.34F WCI -11
DUBUQUE        SUNNY     11  -4  51 N12       30.30S WCI  -3
MONTICELLO *   SUNNY     10  -2  56 NW13      30.35S WCI  -5
OELWEIN *      SUNNY      5  -4  66 NW14      30.38S WCI -12
WATERLOO       SUNNY      6  -4  63 N16       30.40F WCI -12
$$

IAZ064-065-067-068-078-262100-
   EAST CENTRAL IOWA

CITY           SKY/WX    TMP DP  RH WIND       PRES   REMARKS
DAVENPORT      PTSUNNY   12   0  58 NW13      30.34R WCI  -3
IOWA CITY      SUNNY     11  -2  56 NW17      30.40R WCI  -6
MT. PLEASANT * SUNNY     10  -1  61 NW16      30.38R WCI  -8
MUSCATINE *    SUNNY     12   1  62 NW17      30.39R WCI  -5
QUAD CITIES    SUNNY     14   1  56 NW10      30.34R WCI   1
$$

IAZ062-063-075>077-085>089-095>099-262100-
   SOUTHEAST IOWA

CITY           SKY/WX    TMP DP  RH WIND       PRES   REMARKS
BURLINGTON     SUNNY     11   0  61 NW12G22   30.35R WCI  -3
FAIRFIELD *    SUNNY      9  -4  56 NW18      30.39S WCI -10
FORT MADISON * SUNNY     12   1  62 NW15      30.36R WCI  -4
KEOKUK *       SUNNY     12   0  57 NW16G24   30.36R WCI  -4
OSKALOOSA *    FAIR      10   0  65 N20       30.41F WCI  -9
CENTERVILLE *  FAIR      10  -2  56 NW18      30.41R WCI  -8
OTTUMWA        SUNNY     10  -1  61 N25       30.40S WCI -11
WASHINGTON *   SUNNY     10   3  72 NW22      30.38S WCI  -9
$$

ABBREVIATIONS USED IN REMARKS
   TC - TEMPERATURES IN CELSIUS
  WCI - WIND CHILL INDEX
   HX - HEAT INDEX
  VSB - VISIBILITY
$$



USA.gov is the U.S. government's official web portal to all federal, state and local government web resources and services.